EN

Hourly Weather Oshakty

Today, 24 November, Tuesday

Time Temperature Precipitation Wind Pressure Humidity
00:00 -3°C° 0 mm 1 mps 739 mmHg 64%
01:00 -3°C° 0 mm 1 mps 739 mmHg 63%
02:00 -3°C° 0 mm 1 mps 739 mmHg 62%
03:00 -3°C° 0 mm 1 mps 739 mmHg 60%
04:00 -3°C° 0 mm 1 mps 739 mmHg 58%
05:00 -4°C° 0 mm 1 mps 738 mmHg 57%
06:00 -4°C° 0 mm 1 mps 738 mmHg 56%
07:00 -4°C° 0 mm 1 mps 738 mmHg 55%
08:00 -4°C° 0 mm 0 mps 738 mmHg 54%
09:00 -3°C° 0 mm 0 mps 738 mmHg 50%
10:00 -1°C° 0 mm 0 mps 738 mmHg 45%
11:00 +1°C° 0 mm 0 mps 738 mmHg 42%
12:00 +2°C° 0 mm 0 mps 738 mmHg 40%
13:00 +2°C° 0 mm 0 mps 737 mmHg 39%
14:00 +3°C° 0 mm 0 mps 737 mmHg 38%
15:00 +2°C° 0 mm 0 mps 737 mmHg 44%
16:00 +1°C° 0 mm 0 mps 738 mmHg 50%
17:00 0°C° 0 mm 1 mps 738 mmHg 55%
18:00 0°C° 0 mm 1 mps 738 mmHg 56%
19:00 0°C° 0 mm 1 mps 738 mmHg 58%
20:00 0°C° 0 mm 1 mps 738 mmHg 59%
21:00 0°C° 0 mm 1 mps 738 mmHg 60%
22:00 0°C° 0 mm 1 mps 738 mmHg 60%
23:00 0°C° 0 mm 1 mps 738 mmHg 61%

Tomorrow, 25 November, Wednesday

Time Temperature Precipitation Wind Pressure Humidity
00:00 0°C° 0 mm 1 mps 738 mmHg 60%
01:00 0°C° 0 mm 1 mps 738 mmHg 60%
02:00 0°C° 0 mm 1 mps 738 mmHg 60%
03:00 0°C° 0 mm 1 mps 738 mmHg 60%
04:00 -1°C° 0 mm 0 mps 738 mmHg 59%
05:00 -1°C° 0 mm 0 mps 738 mmHg 59%
06:00 -1°C° 0 mm 0 mps 739 mmHg 58%
07:00 -1°C° 0 mm 0 mps 739 mmHg 58%
08:00 -1°C° 0 mm 0 mps 739 mmHg 58%
09:00 0°C° 0 mm 0 mps 739 mmHg 54%
10:00 +3°C° 0 mm 1 mps 739 mmHg 49%
11:00 +4°C° 0 mm 1 mps 740 mmHg 45%
12:00 +5°C° 0 mm 1 mps 739 mmHg 44%
13:00 +6°C° 0 mm 1 mps 739 mmHg 43%
14:00 +6°C° 0 mm 1 mps 739 mmHg 42%
15:00 +5°C° 0 mm 1 mps 739 mmHg 46%
16:00 +4°C° 0 mm 1 mps 740 mmHg 50%
17:00 +4°C° 0 mm 1 mps 740 mmHg 54%
18:00 +3°C° 0 mm 1 mps 740 mmHg 56%
19:00 +3°C° 0 mm 1 mps 740 mmHg 58%
20:00 +2°C° 0 mm 1 mps 740 mmHg 59%
21:00 +2°C° 0 mm 1 mps 740 mmHg 62%
22:00 +2°C° 0 mm 1 mps 740 mmHg 65%
23:00 +2°C° 0 mm 1 mps 740 mmHg 68%

Day after tomorrow, 26 November, Thursday

Time Temperature Precipitation Wind Pressure Humidity
00:00 +1°C° 0 mm 1 mps 740 mmHg 70%
01:00 +1°C° 0 mm 1 mps 740 mmHg 71%
02:00 -1°C° 0 mm 2 mps 740 mmHg 73%
03:00 -1°C° 0 mm 2 mps 740 mmHg 72%
04:00 -1°C° 0 mm 2 mps 740 mmHg 72%
05:00 -1°C° 0 mm 2 mps 740 mmHg 71%
06:00 -1°C° 0 mm 2 mps 740 mmHg 70%
07:00 -1°C° 0 mm 2 mps 740 mmHg 68%
08:00 -1°C° 0 mm 2 mps 740 mmHg 66%
09:00 +3°C° 0 mm 1 mps 740 mmHg 60%
10:00 +5°C° 0 mm 1 mps 740 mmHg 53%
11:00 +7°C° 0 mm 1 mps 739 mmHg 46%
12:00 +7°C° 0 mm 1 mps 739 mmHg 44%
13:00 +8°C° 0 mm 1 mps 739 mmHg 42%
14:00 +9°C° 0 mm 1 mps 739 mmHg 40%
15:00 +7°C° 0 mm 0 mps 739 mmHg 42%
16:00 +6°C° 0 mm 0 mps 739 mmHg 45%
17:00 +5°C° 0 mm 0 mps 738 mmHg 47%
18:00 +5°C° 0 mm 0 mps 738 mmHg 48%
19:00 +5°C° 0 mm 0 mps 738 mmHg 48%
20:00 +5°C° 0 mm 0 mps 738 mmHg 49%
21:00 +5°C° 0 mm 0 mps 738 mmHg 49%
22:00 +5°C° 0 mm 1 mps 738 mmHg 50%
23:00 +5°C° 0 mm 1 mps 737 mmHg 50%

27 November, Friday

Time Temperature Precipitation Wind Pressure Humidity
00:00 +5°C° 0 mm 1 mps 737 mmHg 50%
01:00 +4°C° 0 mm 0 mps 737 mmHg 50%
02:00 +4°C° 0 mm 0 mps 736 mmHg 50%
03:00 +5°C° 0 mm 1 mps 736 mmHg 49%
04:00 +5°C° 0 mm 1 mps 736 mmHg 49%
05:00 +4°C° 0 mm 2 mps 736 mmHg 49%
06:00 +4°C° 0 mm 2 mps 735 mmHg 47%
07:00 +5°C° 0 mm 2 mps 735 mmHg 46%
08:00 +5°C° 0 mm 2 mps 735 mmHg 45%
09:00 +7°C° 0 mm 2 mps 735 mmHg 42%
10:00 +8°C° 0 mm 2 mps 735 mmHg 39%
11:00 +9°C° 0 mm 2 mps 735 mmHg 36%
12:00 +10°C° 0 mm 2 mps 735 mmHg 33%
13:00 +11°C° 0 mm 1 mps 735 mmHg 31%
14:00 +12°C° 0 mm 1 mps 735 mmHg 29%
15:00 +10°C° 0 mm 2 mps 735 mmHg 30%
16:00 +10°C° 0 mm 3 mps 735 mmHg 31%
17:00 +9°C° 0 mm 3 mps 736 mmHg 31%
18:00 +9°C° 0 mm 3 mps 736 mmHg 33%
19:00 +9°C° 0 mm 2 mps 736 mmHg 34%
20:00 +8°C° 0 mm 2 mps 737 mmHg 35%
21:00 +8°C° 0 mm 2 mps 737 mmHg 36%
22:00 +8°C° 0 mm 2 mps 737 mmHg 36%
23:00 +7°C° 0 mm 2 mps 737 mmHg 37%

28 November, Saturday

Time Temperature Precipitation Wind Pressure Humidity
00:00 +7°C° 0.1 mm 2 mps 738 mmHg 46%
01:00 +5°C° 0.1 mm 3 mps 740 mmHg 55%
02:00 +5°C° 0.1 mm 3 mps 741 mmHg 65%
03:00 +4°C° 2.2 mm 4 mps 742 mmHg 75%
04:00 +1°C° 2.2 mm 4 mps 743 mmHg 85%
05:00 0°C° 2.2 mm 5 mps 745 mmHg 95%
06:00 0°C° 0.6 mm 4 mps 746 mmHg 91%
07:00 0°C° 0.6 mm 4 mps 747 mmHg 88%
08:00 +1°C° 0.6 mm 3 mps 749 mmHg 84%
09:00 +2°C° 0 mm 2 mps 749 mmHg 81%
10:00 +3°C° 0 mm 2 mps 750 mmHg 77%
11:00 +4°C° 0 mm 1 mps 750 mmHg 74%
12:00 +4°C° 0 mm 1 mps 750 mmHg 69%
13:00 +5°C° 0 mm 1 mps 750 mmHg 65%
14:00 +5°C° 0 mm 1 mps 750 mmHg 61%
15:00 +5°C° 0 mm 1 mps 750 mmHg 62%
16:00 +5°C° 0 mm 1 mps 750 mmHg 63%
17:00 +4°C° 0 mm 1 mps 751 mmHg 64%
18:00 +3°C° 0 mm 2 mps 751 mmHg 68%
19:00 +2°C° 0 mm 2 mps 750 mmHg 71%
20:00 0°C° 0 mm 3 mps 750 mmHg 74%
21:00 0°C° 0 mm 3 mps 750 mmHg 75%
22:00 -1°C° 0 mm 3 mps 749 mmHg 76%
23:00 -1°C° 0 mm 3 mps 749 mmHg 77%

29 November, Sunday

Time Temperature Precipitation Wind Pressure Humidity
00:00 -1°C° 0 mm 3 mps 749 mmHg 75%
01:00 -2°C° 0 mm 3 mps 749 mmHg 73%
02:00 -2°C° 0 mm 2 mps 748 mmHg 70%
03:00 -2°C° 0 mm 2 mps 748 mmHg 66%
04:00 -2°C° 0 mm 2 mps 748 mmHg 62%
05:00 -2°C° 0 mm 2 mps 747 mmHg 58%
06:00 -2°C° 0 mm 2 mps 747 mmHg 55%
07:00 -2°C° 0 mm 2 mps 747 mmHg 52%
08:00 -2°C° 0 mm 2 mps 746 mmHg 49%
09:00 +2°C° 0 mm 1 mps 746 mmHg 43%
10:00 +4°C° 0 mm 1 mps 746 mmHg 36%
11:00 +5°C° 0 mm 1 mps 745 mmHg 30%
12:00 +6°C° 0 mm 1 mps 745 mmHg 28%
13:00 +7°C° 0 mm 1 mps 744 mmHg 26%
14:00 +8°C° 0 mm 1 mps 744 mmHg 25%
15:00 +7°C° 0 mm 1 mps 744 mmHg 30%
16:00 +6°C° 0 mm 1 mps 743 mmHg 34%
17:00 +4°C° 0 mm 1 mps 743 mmHg 39%
18:00 +4°C° 0 mm 1 mps 743 mmHg 43%
19:00 +3°C° 0 mm 1 mps 743 mmHg 46%
20:00 +3°C° 0 mm 1 mps 743 mmHg 50%
21:00 +2°C° 0 mm 1 mps 743 mmHg 50%
22:00 +2°C° 0 mm 1 mps 742 mmHg 50%
23:00 +2°C° 0 mm 1 mps 742 mmHg 50%
Show more

We Need Your Consent

Meteoprog and our Service Providers may store and access personal data such as cookies, device identifiers or other similar technologies on your device and process such data to personalise content and ads, as well as provide social media features and to analyse the traffic.

  • Store and/or access information on your device

    Cookies, device identifiers or other information can be stored or accessed on your device for the purposes indicated above.

  • Personalised ads and content, ad and content measurement, audience insights, and products development

    Ads and content can be personalised based on a profile. More data can be added to better personalise ads and content. Ad and content performance can be measured. Insights about the audience who saw the ads and content can be derived. Such data can be used to develop or improve user’s experience, systems and software.

By clicking ‘I Agree’ you will allow the use of indicated cookies, device identifiers, web beacons or other similar technologies. Your settings can be changed in the browser on your device.

For certain purposes, legitimate interests may be relied on, rather than consent. You can read more about this in our Privacy and Cookie Policy.